1998-067PT (43848 NORAD) Tracking and Keplerian Element Data

This shows tracking and keplerian element data for the satellite.

Feedback or suggestion? Click here.




ElementValue
Catalog43848
Name1998-067PT
Epoch Orbit14
Epoch Day346.86901084
Epoch Year2018
RAAN208.2347
Inclination51.6334
Eccentricity0.0025116
Argument of Perigee100.0374
Mean Anonmoly1.1369
Mean Motion15.68944317
Decay Rate0.08036764
L11 43848U 98067PT 18346.86901084 .08036764 00000-0 56031-1 0 9995
L22 43848 51.6334 208.2347 0025116 100.0374 1.1369 15.68944317 140



Live tracking and technical data element details for 1998-067PT (NORAD 43848). 1998-067PT can be tracked NOW for your location showing map with azimuth and elevation plus other details from your city location.







IsCatalogInMostPopularTable: catalog: 43848, numindb: 492
Update: records affected: 1



GetName: 43848 1998-067PT

Hit Count: updated at: Sat, 17 May 2025 09:14:16 GMT